Location: Presov
(49.0000°N, 21.2500°E)
Time: 06:48:03
(UTC+02:00)

Transit 2A Rocket - Pass Details

Date: 14 April 2021
Orbit: 594 x 909 km, 66.7° (Epoch: 07 May)

Event Time Altitude Azimuth Distance (km) Brightness Sun altitude
Rises 18:45:32 0° 248° (WSW) 2,925 9.2 5.6°
Reaches altitude 10° 18:48:09 10° 260° (W) 1,984 8.9 5.2°
Maximum altitude 18:51:55 27° 319° (NW) 1,174 6.8 4.6°
Drops below altitude 10° 18:55:38 10° 18° (NNE) 1,939 7.1 4.0°
Sets 18:58:09 0° 31° (NNE) 2,844 7.7 3.6°
